Hourly Data Report for November 20, 2019

EUREKA CLIMATE
NUNAVUT
Current Station Operator: ECCC - MSC

79°59'21.000" N
85°56'02.000" W
10.00 m
2401199
71613
NEK

Download Data

Hourly Data (November 2019)
Hourly Data Report for November 20, 2019
TIME
LST
Temp Definition
°C
Dew Point Definition
°C
Rel Hum Definition
%
Precip. Amount Definition
mm

Wind Dir Definition
10's deg

Wind Spd Definition
km/h
Visibility Definition
km
Stn Press Definition
kPa
Hmdx Definition


Wind Chill Definition


Weather Definition


00:00 -23.4 -25.4 83 0.0 9 5   101.39   -28 LegendNANA
01:00 -24.4 -26.5 82 0.0 10 7   101.42   -31 LegendNANA
02:00 -24.5 -26.6 82 0.0 10 8   101.47   -32 LegendNANA
03:00 -24.0 -26.1 83 0.0 12 8   101.52   -31 LegendNANA
04:00 -24.8 -27.0 82 0.2 9 6   101.55   -31 LegendNANA
05:00 -25.9 -28.2 81 0.0 3 5   101.58   -31 LegendNANA
06:00 -26.2 -28.5 81 0.0 3 5   101.61   -31 LegendNANA
07:00 -24.6 -26.7 82 0.0 8 3   101.63   -28 LegendNANA
08:00 -25.5 -27.7 81 0.0 9 5   101.64   -31 LegendNANA
09:00 -25.7 -27.9 81 0.0 6 5   101.66   -31 LegendNANA
10:00 -27.3 -29.8 79 0.0 11 7   101.68   -34 LegendNANA
11:00 -26.9 -29.4 80 0.2 8 5   101.70   -32 LegendNANA
12:00 -27.2 -29.7 79 0.0 10 4   101.74   -31 LegendNANA
13:00 -27.3 -29.8 80 0.0 6 3   101.74   -30 LegendNANA
14:00 -26.4 -28.8 80 0.0   0   101.78     LegendNANA
15:00 -26.9 -29.3 80 0.2 8 3   101.81   -30 LegendNANA
16:00 -27.1 -29.6 79 0.0 12 6   101.83   -33 LegendNANA
17:00 -28.4 -31.0 78 0.0 9 6   101.84   -35 LegendNANA
18:00 -27.1 -29.6 80 0.0 0 1   101.82   -28 LegendNANA
19:00 -28.8 -31.5 78 0.2 11 11   101.82   -38 LegendNANA
20:00 -29.1 -31.8 78 0.0 10 5   101.82   -35 LegendNANA
21:00 -29.7 -32.4 77 0.0 3 4   101.83   -34 LegendNANA
22:00 -30.0 -32.8 77 0.0 9 6   101.82   -37 LegendNANA
23:00 -30.3 -33.1 76 0.0 5 2   101.82   -33 LegendNANA

Notes on Data Quality.

Legend

  • E = Estimated
  • M = Missing
  • NA = Not Available*
  • [empty] = Indicates an unobserved value
Date modified: